Location: Peterborough
(44.3091°N, 78.3197°W)
Time: 13:49:58
(UTC-04:00)

Vanguard 1 - Pass Details

Date: 23 March 2023
Orbit: 649 x 3832 km, 34.2° (Epoch: 02 June)

Event Time Altitude Azimuth Distance (km) Brightness Sun altitude
Rises 21:58:58 0° 279° (W) 7,335 15.6 -26.3°
Reaches altitude 10° 22:05:12 10° 272° (W) 5,850 14.7 -27.2°
Maximum altitude 22:18:16 31° 219° (SW) 3,177 12.6 -29.1°
Enters shadow 22:22:27 24° 186° (S) 3,071 12.3 -29.8°
